User: anonymous   Login
Location: Unspecified
(0.0000°N, 0.0000°E)
Time: 09:13:20
(UTC+00:00)
Language:

Oscar 15 - Orbit

View from above orbital plane
View from above orbital plane
View from above satellite
View from above satellite

Ground track
Ground track

The orbit data is extracted from the following two-line orbital elements,

1 20438U 90005C   17086.81745112 -.00000007 +00000-0 +14244-4 0  9999
2 20438 098.7040 034.3388 0010953 111.0487 307.9436 14.30984040418419
Epoch (UTC): 27 March 2017 19:37:07
Eccentricity: 0.0010953
inclination: 98.7040°
perigee height: 780 km
apogee height: 796 km
right ascension of ascending node: 34.3388°
argument of perigee: 111.0487°
revolutions per day: 14.30984040
mean anomaly at epoch: 307.9436°
orbit number at epoch: 41841

The dashed part of the orbit path shows where the satellite is in the earth's shadow,  

DLR